Findlay, OH

2:31 PM EDT on April 22, 2018 (GMT -0400)
Findlay

Weather History for KFDY - March, 2014

Change the Weather History Date:

Monday, March 10, 2014

  Actual Average Record
Temperature  
Mean Temperature 46 °F -  
Max Temperature 55 °F 44 °F 70 °F (1973)
Min Temperature 37 °F 25 °F 0 °F (1984)
Degree Days  
Heating Degree Days 19    
Moisture  
Dew Point 35 °F    
Average Humidity 68    
Maximum Humidity 77    
Minimum Humidity 59    
Precipitation  
Precipitation 0.01 in - - ()
Sea Level Pressure  
Sea Level Pressure 29.74 in    
Wind  
Wind Speed 14 mph (SW)    
Max Wind Speed 21 mph    
Max Gust Speed 26 mph    
Visibility 9 miles    
Events Rain    
Averages and records for this station are not official NWS values.
T = Trace of Precipitation, MM = Missing Value Source: NWS Daily Summary

Daily Weather History Graph

Daily Weather History Graph

Search for Another Location

Airport or City:

Astronomy

Mar. 10, 2014 Rise Set
Actual Time 7:54 AM EDT 7:35 PM EDT
Civil Twilight 7:27 AM EDT 8:03 PM EDT
Nautical Twilight 6:55 AM EDT 8:35 PM EDT
Astronomical Twilight 6:23 AM EDT 9:07 PM EDT
Moon 2:16 PM EDT (3/10) 4:07 AM EDT (3/10)
Length of Visible Light 12h 36m
Length of Day
11h 41m
Waxing Gibbous, 70% of the Moon is Illuminated
Mar 10
Waxing Gibbous
Mar 16
Full
Mar 23
Last Quarter
Mar 30
New
Apr 7
First Quarter

Hourly Weather History & Observations

Time (EDT) Temp. Windchill Dew Point Humidity Pressure Visibility Wind Dir Wind Speed Gust Speed Precip Events Conditions
12:53 AM 37.0 °F 27.7 °F 26.1 °F 65% 29.90 in 10.0 mi SW 16.1 mph - N/A   Clear
1:53 AM 37.9 °F 29.6 °F 27.0 °F 65% 29.88 in 10.0 mi SW 13.8 mph 21.9 mph N/A   Clear
2:53 AM 37.9 °F 30.0 °F 28.0 °F 68% 29.86 in 10.0 mi SW 12.7 mph - N/A   Clear
3:53 AM 37.9 °F 29.6 °F 28.9 °F 70% 29.82 in 9.0 mi SW 13.8 mph - N/A   Clear
4:53 AM 37.0 °F 29.3 °F 30.0 °F 76% 29.80 in 8.0 mi SW 11.5 mph - N/A   Clear
5:53 AM 39.0 °F 29.9 °F 30.0 °F 70% 29.78 in 8.0 mi SW 17.3 mph - N/A   Mostly Cloudy
6:53 AM 39.9 °F 32.5 °F 30.0 °F 68% 29.77 in 9.0 mi SW 12.7 mph 21.9 mph N/A   Overcast
7:53 AM 41.0 °F 33.9 °F 30.9 °F 67% 29.79 in 10.0 mi WSW 12.7 mph - 0.00 in Rain Light Rain
8:53 AM 39.9 °F 32.9 °F 33.1 °F 77% 29.80 in 6.0 mi WSW 11.5 mph - 0.01 in Rain Light Rain
9:53 AM 41.0 °F 33.9 °F 34.0 °F 76% 29.78 in 8.0 mi SW 12.7 mph - 0.00 in   Mostly Cloudy
10:53 AM 44.1 °F 37.1 °F 35.1 °F 71% 29.76 in 9.0 mi SW 15.0 mph 26.5 mph N/A   Overcast
11:53 AM 45.0 °F 37.9 °F 35.1 °F 68% 29.76 in 10.0 mi SW 16.1 mph - N/A   Mostly Cloudy
12:53 PM 46.9 °F - 35.1 °F 63% 29.75 in 10.0 mi WSW 18.4 mph - N/A   Overcast
1:53 PM 48.9 °F - 37.0 °F 64% 29.72 in 10.0 mi SW 20.7 mph 26.5 mph N/A   Mostly Cloudy
2:53 PM 50.0 °F - 39.0 °F 66% 29.68 in 9.0 mi SW 18.4 mph 25.3 mph N/A   Clear
3:53 PM 54.0 °F - 41.0 °F 62% 29.65 in 8.0 mi SSW 19.6 mph 26.5 mph N/A   Clear
4:53 PM 55.0 °F - 41.0 °F 59% 29.65 in 8.0 mi SW 19.6 mph - N/A   Clear
5:53 PM 55.9 °F - 42.1 °F 60% 29.64 in 7.0 mi WSW 13.8 mph - N/A   Clear
6:53 PM 53.1 °F - 42.1 °F 66% 29.65 in 8.0 mi WSW 10.4 mph - N/A   Clear
7:53 PM 50.0 °F - 39.9 °F 68% 29.66 in 9.0 mi WSW 12.7 mph - N/A   Clear
8:53 PM 48.0 °F - 39.0 °F 71% 29.67 in 9.0 mi WSW 12.7 mph - N/A   Clear
9:53 PM 46.0 °F 41.0 °F 37.9 °F 73% 29.69 in 8.0 mi WSW 10.4 mph - N/A   Clear
10:53 PM 45.0 °F 40.6 °F 37.0 °F 74% 29.69 in 8.0 mi WSW 8.1 mph - N/A   Clear
11:53 PM 45.0 °F 40.1 °F 37.9 °F 76% 29.68 in 8.0 mi WSW 9.2 mph - N/A   Clear